BGA4Y CYMX-CYYZ

Flight info

Callsign BGA4Y
Flight time 0h 52m
Altitude 32000
Route BOBKI DCT MELTI DCT TORNI RAGID6
Aircraft A3ST/H-SDFGHIJ1RWY/LB1

Departure

Time 2026-05-08 00:29
Airport Montreal Mirabel International Airport (CYMX)

Arrival

Time 2026-05-08 01:22
Airport Toronto Pearson International Airport (CYYZ)
Time Latitude Longitude Altitude Speed Heading
2026-05-08 00:28 45.66970 -74.04173 280 ft 16 kts 190°
2026-05-08 00:28 45.66842 -74.04203 280 ft 21 kts 190°
2026-05-08 00:28 45.66676 -74.04241 282 ft 25 kts 189°
2026-05-08 00:28 45.66599 -74.04343 281 ft 6 kts 281°
2026-05-08 00:29 45.66607 -74.04426 281 ft 30 kts 277°
2026-05-08 00:29 45.66681 -74.05144 277 ft 114 kts 278°
2026-05-08 00:29 45.66834 -74.06628 391 ft 175 kts 278°
2026-05-08 00:29 45.66987 -74.08301 1206 ft 174 kts 278°
2026-05-08 00:30 45.67135 -74.10048 2027 ft 179 kts 277°
2026-05-08 00:30 45.67200 -74.11759 3023 ft 171 kts 274°
2026-05-08 00:30 45.67191 -74.13430 3774 ft 178 kts 268°
2026-05-08 00:30 45.66803 -74.15344 4012 ft 220 kts 245°
2026-05-08 00:31 45.66055 -74.17317 4757 ft 236 kts 249°
2026-05-08 00:31 45.65416 -74.19564 5612 ft 250 kts 252°
2026-05-08 00:31 45.64785 -74.21916 6678 ft 257 kts 252°
2026-05-08 00:31 45.64147 -74.24332 7827 ft 261 kts 252°
2026-05-08 00:32 45.63517 -74.26733 8904 ft 263 kts 252°
2026-05-08 00:32 45.62868 -74.29211 9944 ft 267 kts 252°
2026-05-08 00:32 45.62221 -74.31679 10896 ft 271 kts 252°
2026-05-08 00:32 45.61564 -74.34201 11830 ft 273 kts 252°
2026-05-08 00:33 45.60896 -74.36755 12720 ft 276 kts 252°
2026-05-08 00:33 45.60219 -74.39336 13557 ft 279 kts 252°
2026-05-08 00:33 45.59515 -74.42021 14061 ft 295 kts 252°
2026-05-08 00:33 45.58769 -74.44868 14468 ft 313 kts 252°
2026-05-08 00:34 45.57984 -74.47851 15156 ft 322 kts 252°
2026-05-08 00:34 45.57202 -74.50815 16004 ft 325 kts 252°
2026-05-08 00:34 45.56400 -74.53854 16878 ft 326 kts 252°
2026-05-08 00:34 45.55598 -74.56896 17681 ft 328 kts 252°
2026-05-08 00:35 45.54779 -74.60004 18447 ft 331 kts 252°
2026-05-08 00:35 45.53963 -74.63090 19182 ft 334 kts 252°
2026-05-08 00:35 45.53135 -74.66215 19906 ft 337 kts 251°
2026-05-08 00:35 45.52303 -74.69345 20603 ft 341 kts 251°
2026-05-08 00:36 45.51454 -74.72543 21285 ft 345 kts 251°
2026-05-08 00:36 45.50592 -74.75791 21950 ft 348 kts 251°
2026-05-08 00:36 45.49728 -74.79041 22532 ft 353 kts 251°
2026-05-08 00:36 45.48856 -74.82318 23143 ft 356 kts 251°
2026-05-08 00:37 45.47966 -74.85647 23704 ft 361 kts 251°
2026-05-08 00:37 45.47071 -74.88995 24290 ft 364 kts 251°
2026-05-08 00:37 45.46159 -74.92407 24866 ft 368 kts 251°
2026-05-08 00:38 45.44314 -74.99284 26063 ft 371 kts 250°
2026-05-08 00:38 45.43372 -75.02782 26742 ft 370 kts 250°
2026-05-08 00:38 45.42448 -75.06214 27481 ft 367 kts 250°
2026-05-08 00:38 45.41531 -75.09616 28173 ft 364 kts 250°
2026-05-08 00:39 45.40630 -75.12946 28700 ft 361 kts 250°
2026-05-08 00:39 45.39719 -75.16315 29176 ft 359 kts 250°
2026-05-08 00:39 45.38824 -75.19621 29610 ft 358 kts 250°
2026-05-08 00:39 45.37932 -75.22920 30018 ft 357 kts 250°
2026-05-08 00:40 45.37032 -75.26236 30421 ft 357 kts 250°
2026-05-08 00:40 45.36124 -75.29568 30750 ft 356 kts 250°
2026-05-08 00:40 45.35234 -75.32831 31048 ft 355 kts 250°
2026-05-08 00:40 45.34334 -75.36136 31362 ft 354 kts 250°
2026-05-08 00:41 45.33436 -75.39421 31654 ft 353 kts 250°
2026-05-08 00:41 45.32550 -75.42657 31827 ft 355 kts 250°
2026-05-08 00:41 45.31642 -75.45969 31839 ft 354 kts 250°
2026-05-08 00:42 45.29859 -75.52462 31827 ft 352 kts 250°
2026-05-08 00:42 45.28073 -75.58959 31830 ft 352 kts 250°
2026-05-08 00:43 45.26284 -75.65444 31823 ft 352 kts 249°
2026-05-08 00:43 45.24479 -75.71965 31846 ft 353 kts 249°
2026-05-08 00:44 45.22669 -75.78498 31856 ft 356 kts 249°
2026-05-08 00:44 45.20822 -75.85140 31851 ft 360 kts 249°
2026-05-08 00:45 45.18957 -75.91827 31849 ft 360 kts 249°
2026-05-08 00:45 45.17104 -75.98458 31856 ft 360 kts 250°
2026-05-08 00:46 45.15245 -76.05092 31839 ft 360 kts 249°
2026-05-08 00:46 45.13380 -76.11714 31840 ft 360 kts 249°
2026-05-08 00:47 45.11512 -76.18340 31847 ft 362 kts 249°
2026-05-08 00:47 45.09422 -76.24891 31843 ft 362 kts 243°
2026-05-08 00:48 45.06926 -76.31118 31844 ft 363 kts 243°
2026-05-08 00:48 45.04446 -76.37367 31832 ft 362 kts 243°
2026-05-08 00:49 45.01972 -76.43633 31846 ft 363 kts 243°
2026-05-08 00:49 44.99492 -76.49905 31838 ft 363 kts 243°
2026-05-08 00:50 44.97010 -76.56169 31826 ft 362 kts 243°
2026-05-08 00:50 44.94531 -76.62403 31836 ft 363 kts 243°
2026-05-08 00:51 44.92052 -76.68623 31836 ft 362 kts 242°
2026-05-08 00:51 44.89573 -76.74839 31847 ft 362 kts 242°
2026-05-08 00:52 44.87072 -76.81087 31866 ft 363 kts 243°
2026-05-08 00:52 44.84586 -76.87289 31854 ft 363 kts 243°
2026-05-08 00:53 44.82094 -76.93491 31843 ft 362 kts 243°
2026-05-08 00:53 44.79579 -76.99666 31858 ft 363 kts 242°
2026-05-08 00:54 44.77078 -77.05843 31871 ft 363 kts 243°
2026-05-08 00:54 44.74569 -77.12060 31853 ft 363 kts 243°
2026-05-08 00:55 44.72062 -77.18248 31857 ft 363 kts 243°
2026-05-08 00:55 44.69553 -77.24432 31664 ft 365 kts 243°
2026-05-08 00:55 44.68293 -77.27533 31433 ft 366 kts 243°
2026-05-08 00:56 44.67022 -77.30657 31058 ft 367 kts 243°
2026-05-08 00:56 44.65742 -77.33801 30658 ft 366 kts 243°
2026-05-08 00:56 44.65371 -77.34713 30534 ft 365 kts 243°
2026-05-08 00:56 44.64209 -77.37565 30106 ft 365 kts 243°
2026-05-08 00:57 44.62941 -77.40665 29633 ft 364 kts 243°
2026-05-08 00:57 44.61680 -77.43748 29163 ft 363 kts 243°
2026-05-08 00:57 44.60417 -77.46835 28677 ft 365 kts 243°
2026-05-08 00:57 44.59143 -77.49946 28190 ft 367 kts 243°
2026-05-08 00:58 44.57864 -77.53071 27681 ft 370 kts 243°
2026-05-08 00:58 44.56578 -77.56210 27116 ft 372 kts 242°
2026-05-08 00:58 44.55261 -77.59414 26530 ft 374 kts 242°
2026-05-08 00:58 44.53966 -77.62558 25948 ft 372 kts 242°
2026-05-08 00:59 44.52663 -77.65720 25352 ft 370 kts 242°
2026-05-08 00:59 44.51376 -77.68806 24772 ft 368 kts 241°
2026-05-08 00:59 44.50075 -77.71910 24148 ft 366 kts 241°
2026-05-08 00:59 44.48801 -77.74969 23530 ft 363 kts 242°
2026-05-08 01:00 44.47527 -77.78037 22904 ft 361 kts 242°
2026-05-08 01:00 44.46272 -77.81068 22295 ft 359 kts 242°
2026-05-08 01:00 44.45017 -77.84090 21665 ft 357 kts 242°
2026-05-08 01:00 44.43759 -77.87112 21044 ft 354 kts 242°
2026-05-08 01:01 44.42521 -77.90085 20429 ft 352 kts 242°
2026-05-08 01:01 44.41281 -77.93062 19814 ft 350 kts 242°
2026-05-08 01:01 44.40065 -77.95979 19208 ft 347 kts 242°
2026-05-08 01:01 44.38841 -77.98913 18590 ft 345 kts 242°
2026-05-08 01:02 44.37640 -78.01790 17989 ft 342 kts 242°
2026-05-08 01:02 44.36433 -78.04677 17387 ft 340 kts 242°
2026-05-08 01:02 44.35238 -78.07522 16776 ft 337 kts 242°
2026-05-08 01:02 44.34040 -78.10355 16171 ft 335 kts 241°
2026-05-08 01:03 44.32856 -78.13162 15561 ft 333 kts 242°
2026-05-08 01:03 44.31696 -78.15913 14956 ft 330 kts 242°
2026-05-08 01:03 44.30537 -78.18664 13697 ft 331 kts 242°
2026-05-08 01:03 44.29380 -78.21400 12359 ft 325 kts 242°
2026-05-08 01:04 44.28269 -78.24026 11703 ft 305 kts 242°
2026-05-08 01:04 44.27204 -78.26553 11092 ft 300 kts 242°
2026-05-08 01:04 44.26153 -78.29048 10690 ft 296 kts 242°
2026-05-08 01:04 44.25131 -78.31476 11338 ft 286 kts 242°
2026-05-08 01:05 44.24120 -78.33871 11145 ft 282 kts 242°
2026-05-08 01:05 44.23135 -78.36194 10868 ft 273 kts 242°
2026-05-08 01:05 44.22180 -78.38450 10594 ft 265 kts 242°
2026-05-08 01:05 44.21252 -78.40640 10324 ft 258 kts 243°
2026-05-08 01:06 44.20343 -78.42780 10082 ft 251 kts 243°
2026-05-08 01:06 44.19451 -78.44879 9817 ft 248 kts 243°
2026-05-08 01:06 44.18567 -78.46961 9551 ft 249 kts 243°
2026-05-08 01:06 44.17674 -78.49057 9291 ft 248 kts 243°
2026-05-08 01:07 44.16802 -78.51106 9040 ft 247 kts 243°
2026-05-08 01:07 44.15922 -78.53178 8793 ft 247 kts 243°
2026-05-08 01:07 44.15034 -78.55268 8536 ft 247 kts 243°
2026-05-08 01:07 44.14153 -78.57336 8276 ft 247 kts 243°
2026-05-08 01:08 44.13272 -78.59401 8025 ft 247 kts 243°
2026-05-08 01:08 44.12392 -78.61461 7764 ft 247 kts 243°
2026-05-08 01:08 44.11504 -78.63539 7497 ft 247 kts 243°
2026-05-08 01:08 44.10627 -78.65587 7238 ft 245 kts 242°
2026-05-08 01:09 44.09740 -78.67659 6994 ft 245 kts 242°
2026-05-08 01:09 44.08876 -78.69672 6955 ft 244 kts 242°
2026-05-08 01:09 44.08001 -78.71714 6979 ft 244 kts 242°
2026-05-08 01:09 44.07124 -78.73766 6972 ft 244 kts 242°
2026-05-08 01:10 44.06249 -78.75807 6973 ft 244 kts 242°
2026-05-08 01:10 44.05369 -78.77853 6975 ft 245 kts 242°
2026-05-08 01:10 44.04435 -78.79826 6974 ft 246 kts 235°
2026-05-08 01:10 44.03308 -78.81678 6967 ft 248 kts 232°
2026-05-08 01:11 44.02165 -78.83459 6964 ft 248 kts 231°
2026-05-08 01:11 44.01004 -78.85240 6952 ft 249 kts 231°
2026-05-08 01:11 43.99829 -78.87029 6968 ft 246 kts 231°
2026-05-08 01:11 43.98689 -78.88757 6947 ft 235 kts 231°
2026-05-08 01:12 43.97591 -78.90405 6953 ft 229 kts 231°
2026-05-08 01:12 43.96507 -78.92036 6974 ft 228 kts 231°
2026-05-08 01:12 43.95419 -78.93670 7007 ft 237 kts 231°
2026-05-08 01:12 43.94257 -78.95419 7013 ft 246 kts 231°
2026-05-08 01:13 43.93090 -78.97174 7022 ft 250 kts 231°
2026-05-08 01:13 43.91883 -78.98983 6999 ft 252 kts 230°
2026-05-08 01:13 43.90694 -79.00813 6993 ft 250 kts 237°
2026-05-08 01:13 43.89954 -79.03011 6817 ft 247 kts 252°
2026-05-08 01:14 43.89391 -79.05251 6579 ft 241 kts 252°
2026-05-08 01:14 43.88827 -79.07414 6325 ft 235 kts 252°
2026-05-08 01:14 43.88257 -79.09533 6058 ft 230 kts 251°
2026-05-08 01:14 43.87694 -79.11575 5963 ft 220 kts 251°
2026-05-08 01:15 43.87140 -79.13556 5974 ft 220 kts 251°
2026-05-08 01:15 43.86586 -79.15537 5957 ft 222 kts 251°
2026-05-08 01:15 43.86010 -79.17593 5582 ft 229 kts 251°
2026-05-08 01:15 43.85431 -79.19644 5192 ft 230 kts 251°
2026-05-08 01:16 43.84835 -79.21732 4800 ft 231 kts 251°
2026-05-08 01:16 43.84245 -79.23801 4410 ft 232 kts 251°
2026-05-08 01:16 43.83651 -79.25884 4030 ft 232 kts 251°
2026-05-08 01:16 43.83068 -79.27927 3942 ft 221 kts 251°
2026-05-08 01:17 43.82502 -79.29920 3956 ft 222 kts 251°
2026-05-08 01:17 43.81939 -79.31906 3966 ft 223 kts 251°
2026-05-08 01:17 43.81364 -79.33921 3975 ft 223 kts 251°
2026-05-08 01:17 43.80787 -79.35941 3987 ft 223 kts 251°
2026-05-08 01:18 43.80214 -79.37935 3981 ft 223 kts 251°
2026-05-08 01:18 43.79637 -79.39944 3985 ft 224 kts 251°
2026-05-08 01:18 43.79059 -79.41939 3988 ft 223 kts 249°
2026-05-08 01:18 43.78190 -79.43738 4008 ft 226 kts 234°
2026-05-08 01:19 43.77147 -79.45409 3982 ft 227 kts 230°
2026-05-08 01:19 43.76033 -79.47046 3434 ft 235 kts 231°
2026-05-08 01:19 43.74981 -79.48678 2595 ft 227 kts 231°
2026-05-08 01:19 43.73998 -79.50263 2246 ft 199 kts 233°
2026-05-08 01:20 43.73122 -79.51615 2133 ft 181 kts 230°
2026-05-08 01:20 43.72298 -79.52809 1947 ft 163 kts 230°
2026-05-08 01:20 43.71529 -79.53919 1714 ft 154 kts 230°
2026-05-08 01:20 43.70821 -79.54958 1505 ft 148 kts 230°
2026-05-08 01:21 43.70115 -79.55984 1315 ft 146 kts 229°
2026-05-08 01:21 43.69396 -79.56995 1073 ft 145 kts 227°
2026-05-08 01:21 43.68706 -79.57985 938 ft 143 kts 228°
2026-05-08 01:21 43.68014 -79.58993 762 ft 143 kts 228°
2026-05-08 01:22 43.67336 -79.60000 575 ft 141 kts 228°
2026-05-08 01:22 43.66716 -79.60905 552 ft 107 kts 228°
2026-05-08 01:22 43.66345 -79.61462 550 ft 49 kts 226°
2026-05-08 01:22 43.66138 -79.61754 546 ft 47 kts 223°
2026-05-08 01:23 43.65995 -79.62081 539 ft 27 kts 253°
2026-05-08 01:23 43.66083 -79.62309 538 ft 34 kts 320°
2026-05-08 01:23 43.66216 -79.62476 540 ft 16 kts 331°
2026-05-08 01:23 43.66332 -79.62431 543 ft 21 kts 41°
2026-05-08 01:24 43.66419 -79.62327 547 ft 8 kts 43°
2026-05-08 01:24 43.66475 -79.62257 550 ft 9 kts 42°
2026-05-08 01:24 43.66491 -79.62240 550 ft 4 kts 28°
2026-05-08 01:24 43.66554 -79.62279 552 ft 17 kts 321°
2026-05-08 01:25 43.66665 -79.62422 554 ft 23 kts 316°
2026-05-08 01:25 43.66780 -79.62571 556 ft 21 kts 319°
2026-05-08 01:25 43.66878 -79.62699 560 ft 17 kts 315°
2026-05-08 01:25 43.66960 -79.62808 561 ft 15 kts 317°
2026-05-08 01:26 43.67030 -79.62899 562 ft 12 kts 316°
2026-05-08 01:26 43.67088 -79.62975 562 ft 10 kts 317°
2026-05-08 01:26 43.67150 -79.63057 562 ft 17 kts 317°
2026-05-08 01:26 43.67266 -79.63209 561 ft 28 kts 317°
2026-05-08 01:27 43.67420 -79.63409 555 ft 32 kts 317°
2026-05-08 01:27 43.67592 -79.63632 546 ft 33 kts 317°
2026-05-08 01:27 43.67761 -79.63854 540 ft 31 kts 316°
2026-05-08 01:27 43.67916 -79.64059 539 ft 29 kts 318°
2026-05-08 01:28 43.68061 -79.64246 539 ft 27 kts 316°
2026-05-08 01:28 43.68191 -79.64416 542 ft 23 kts 317°
2026-05-08 01:28 43.68302 -79.64561 544 ft 19 kts 317°
2026-05-08 01:28 43.68393 -79.64681 546 ft 16 kts 317°
2026-05-08 01:29 43.68423 -79.64719 547 ft 0 kts 316°
2026-05-08 01:29 43.68433 -79.64732 548 ft 4 kts 316°
2026-05-08 01:30 43.68471 -79.64784 550 ft 11 kts 316°
2026-05-08 01:30 43.68536 -79.64871 553 ft 13 kts 316°
2026-05-08 01:30 43.68598 -79.64951 555 ft 10 kts 317°
2026-05-08 01:30 43.68644 -79.65009 557 ft 8 kts 317°
2026-05-08 01:31 43.68686 -79.65077 558 ft 10 kts 287°
2026-05-08 01:31 43.68643 -79.65195 558 ft 18 kts 224°
2026-05-08 01:31 43.68533 -79.65250 557 ft 15 kts 192°
2026-05-08 01:31 43.68420 -79.65294 556 ft 16 kts 206°
2026-05-08 01:32 43.68337 -79.65398 559 ft 16 kts 226°
2026-05-08 01:32 43.68301 -79.65505 562 ft 10 kts 285°
2026-05-08 01:32 43.68338 -79.65567 564 ft 6 kts 315°
2026-05-08 01:32 43.68366 -79.65624 566 ft 9 kts 277°
2026-05-08 01:33 43.68324 -79.65721 569 ft 7 kts 227°
2026-05-08 01:33 43.68292 -79.65741 569 ft 2 kts 142°
2026-05-08 01:33 43.68281 -79.65730 569 ft 1 kts 143°
2026-05-08 01:33 43.68263 -79.65710 569 ft 6 kts 139°
2026-05-08 01:34 43.68257 -79.65701 569 ft 0 kts 137°
2026-05-08 01:34 43.68254 -79.65698 569 ft 0 kts 137°